TimeEDT,TemperatureF,Dew PointF,Humidity,Sea Level PressureIn,VisibilityMPH,Wind Direction,Wind SpeedMPH,Gust SpeedMPH,PrecipitationIn,Events,Conditions,WindDirDegrees,DateUTC
12:51 AM,79.0,68.0,69,29.99,10.0,SSW,4.6,-,N/A,,Overcast,200,2013-07-10 04:51:00
1:51 AM,78.1,69.1,74,29.98,10.0,South,8.1,-,N/A,,Overcast,190,2013-07-10 05:51:00
2:51 AM,75.9,69.1,79,29.96,9.0,South,4.6,-,N/A,,Mostly Cloudy,190,2013-07-10 06:51:00
3:51 AM,75.9,69.1,79,29.96,9.0,South,5.8,-,N/A,,Partly Cloudy,180,2013-07-10 07:51:00
4:51 AM,75.0,70.0,84,29.96,9.0,South,5.8,-,N/A,,Partly Cloudy,190,2013-07-10 08:51:00
5:51 AM,75.0,70.0,84,29.96,7.0,SSE,4.6,-,N/A,,Scattered Clouds,160,2013-07-10 09:51:00
6:51 AM,75.9,71.1,85,29.95,7.0,South,4.6,-,N/A,,Mostly Cloudy,180,2013-07-10 10:51:00
7:51 AM,78.1,72.0,81,29.94,6.0,South,8.1,-,N/A,,Haze,190,2013-07-10 11:51:00
8:51 AM,80.1,73.0,79,29.94,6.0,South,8.1,-,N/A,,Haze,180,2013-07-10 12:51:00
9:51 AM,82.0,73.0,74,29.92,7.0,SSW,8.1,-,N/A,,Haze,210,2013-07-10 13:51:00
10:51 AM,82.0,73.0,74,29.92,7.0,SSW,11.5,-,N/A,,Overcast,200,2013-07-10 14:51:00
11:41 AM,82.4,71.6,70,29.91,10.0,SW,10.4,-,0.00,Rain,Light Rain,220,2013-07-10 15:41:00
11:51 AM,82.0,73.9,76,29.90,6.0,SW,12.7,-,0.00,Rain,Light Rain,230,2013-07-10 15:51:00
12:51 PM,86.0,73.9,67,29.88,10.0,SW,12.7,-,0.00,Rain,Light Rain,230,2013-07-10 16:51:00
12:58 PM,84.2,73.4,70,29.88,10.0,Variable,5.8,-,0.00,Rain,Light Rain,0,2013-07-10 16:58:00
1:09 PM,87.8,73.4,62,29.87,10.0,SW,16.1,21.9,0.00,Rain,Light Rain,220,2013-07-10 17:09:00
1:51 PM,86.0,72.0,63,29.86,10.0,WSW,15.0,23.0,0.00,Rain,Light Rain,250,2013-07-10 17:51:00
2:51 PM,86.0,69.1,57,29.84,10.0,WSW,18.4,25.3,0.00,Rain,Light Rain,250,2013-07-10 18:51:00
3:51 PM,87.1,70.0,57,29.83,10.0,WSW,13.8,20.7,0.00,,Partly Cloudy,240,2013-07-10 19:51:00
4:51 PM,88.0,68.0,51,29.81,10.0,WSW,16.1,21.9,N/A,,Partly Cloudy,250,2013-07-10 20:51:00
5:51 PM,87.1,69.1,55,29.79,10.0,SW,10.4,-,N/A,,Partly Cloudy,230,2013-07-10 21:51:00
6:51 PM,86.0,69.1,57,29.81,10.0,WSW,11.5,-,N/A,,Clear,250,2013-07-10 22:51:00
7:51 PM,84.9,68.0,57,29.82,10.0,SW,11.5,-,N/A,,Clear,230,2013-07-10 23:51:00
8:51 PM,84.0,69.1,61,29.82,10.0,WSW,9.2,-,N/A,,Clear,240,2013-07-11 00:51:00
9:51 PM,82.9,70.0,65,29.83,10.0,SW,10.4,-,N/A,,Clear,230,2013-07-11 01:51:00
10:51 PM,82.9,71.1,67,29.82,10.0,SW,8.1,-,N/A,,Clear,220,2013-07-11 02:51:00
11:51 PM,82.0,72.0,71,29.81,10.0,WSW,8.1,-,N/A,,Clear,240,2013-07-11 03:51:00